TimeMST,TemperatureF,Dew PointF,Humidity,Sea Level PressureIn,VisibilityMPH,Wind Direction,Wind SpeedMPH,Gust SpeedMPH,PrecipitationIn,Events,Conditions,WindDirDegrees,DateUTC
12:53 AM,-4.0,-7.1,87,30.65,10.0,SE,4.6,-,N/A,,Clear,130,2013-01-17 07:53:00
1:53 AM,-2.9,-6.0,87,30.66,10.0,ESE,4.6,-,N/A,,Clear,120,2013-01-17 08:53:00
2:53 AM,-6.0,-9.0,87,30.67,10.0,Calm,Calm,-,N/A,,Clear,0,2013-01-17 09:53:00
3:53 AM,-8.0,-11.9,83,30.68,10.0,NNW,3.5,-,N/A,,Clear,340,2013-01-17 10:53:00
4:53 AM,-7.1,-11.0,83,30.69,10.0,Calm,Calm,-,N/A,,Clear,0,2013-01-17 11:53:00
5:53 AM,-7.1,-11.0,83,30.69,10.0,Calm,Calm,-,N/A,,Clear,0,2013-01-17 12:53:00
6:53 AM,-8.0,-11.9,83,30.71,10.0,Calm,Calm,-,N/A,,Clear,0,2013-01-17 13:53:00
7:53 AM,-8.0,-11.9,83,30.72,10.0,Calm,Calm,-,N/A,,Clear,0,2013-01-17 14:53:00
8:53 AM,-7.1,-8.0,96,30.73,10.0,Calm,Calm,-,N/A,,Clear,0,2013-01-17 15:53:00
9:53 AM,-0.9,-5.1,83,30.72,10.0,Calm,Calm,-,N/A,,Clear,0,2013-01-17 16:53:00
10:53 AM,1.9,-2.0,83,30.70,10.0,NNW,4.6,-,0.00,,Clear,330,2013-01-17 17:53:00
11:53 AM,6.1,1.0,80,30.64,10.0,NNW,3.5,-,N/A,,Clear,330,2013-01-17 18:53:00
12:53 PM,10.9,3.9,73,30.59,10.0,North,4.6,-,N/A,,Clear,350,2013-01-17 19:53:00
1:53 PM,14.0,7.0,74,30.54,10.0,NNW,3.5,-,N/A,,Clear,330,2013-01-17 20:53:00
2:53 PM,15.1,8.1,74,30.52,10.0,Calm,Calm,-,N/A,,Clear,0,2013-01-17 21:53:00
3:53 PM,15.1,8.1,74,30.52,10.0,NW,4.6,-,N/A,,Clear,310,2013-01-17 22:53:00
4:53 PM,12.0,6.1,77,30.52,10.0,Calm,Calm,-,N/A,,Clear,0,2013-01-17 23:53:00
5:53 PM,9.0,6.1,88,30.53,10.0,Calm,Calm,-,N/A,,Clear,0,2013-01-18 00:53:00
6:53 PM,3.0,1.0,91,30.55,10.0,NW,4.6,-,N/A,,Clear,320,2013-01-18 01:53:00
7:53 PM,1.9,-2.0,83,30.54,10.0,West,4.6,-,N/A,,Clear,260,2013-01-18 02:53:00
8:53 PM,-0.0,-2.9,88,30.54,10.0,NW,8.1,-,N/A,,Clear,310,2013-01-18 03:53:00
9:53 PM,1.0,-2.9,83,30.49,10.0,South,3.5,-,N/A,,Clear,190,2013-01-18 04:53:00
10:53 PM,1.0,-2.0,87,30.46,8.0,Calm,Calm,-,N/A,,Clear,0,2013-01-18 05:53:00
11:53 PM,-0.0,-4.0,83,30.44,7.0,Calm,Calm,-,N/A,,Clear,0,2013-01-18 06:53:00